Location: Le Petit-Vavre
(46.5081°N, 1.5239°E)
Time: 12:42:43
(UTC+00:00)

Meteor 1-20 Rocket - Pass Details

Date: 03 March 2021
Orbit: 820 x 891 km, 81.2° (Epoch: 20 April)

Event Time Altitude Azimuth Distance (km) Brightness Sun altitude
Rises 18:06:59 0° 180° (S) 3,338 7.4 -4.9°
Reaches altitude 10° 18:09:22 10° 177° (S) 2,409 6.6 -5.4°
Maximum altitude 18:14:45 65° 97° (E) 900 4.2 -6.3°
Drops below altitude 10° 18:20:12 10° 16° (NNE) 2,443 6.4 -7.2°
Sets 18:22:38 0° 14° (NNE) 3,388 7.2 -7.6°
